SCP
0 0 1 1 1 0 0 0 0 0 0 0 0 0 0 0 0 0 0 0 0 0 0 0 0 0 0 0 0 0 0 0 0 0 0 0 0 0 0 0 0 0 0 0 0 0 0 0 0
0 0 1 1 0 0 0 0 0 0 0 0 0 0 0 0 0 0 0 0 0 0 0 0 0 0 0 0 0 0 0 0 0 0 0 0 0 0 0 0 0 0 0 0 0 0 0 0 0
0 0 0 0 0 0 0 0 0 0 0 0 0 0 0 0 0 0 0 0 0 0 0 0 0 0 0 0 0 0 0 0 0 0 0 0 0 0 0 0 0 0 0 0 0 0 0 0 0
0 0 0 0 0 0 0 0 0 0 0 0 0 0 0 0 0 0 0 0 0 0 0 0 0 0 0 0 0 0 0 0 0 0 0 0 0 0 0 0 0 0 0 0 0 0 0 0 0
0 0 0 0 0 0 0 0 0 0 0 0 0 0 0 0 0 0 0 0 0 0 0 0 0 0 0 0 0 0 0 0 0 0 0 0 0 0 0 0 0 0 0 0 0 0 0 0 0
0 0 0 0 0 0 0 0 0 0 0 0 0 0 0 0 0 0 0 0 0 0 0 0 0 0 0 0 0 0 0 0 0 0 0 0 0 0 0 0 0 0 0 0 0 0 0 0 0
0 0 0 0 0 0 0 0 0 0 0 0 0 0 0 0 0 0 0 0 0 0 0 0 0 0 0 0 0 0 0 0 0 0 0 0 0 0 0 0 0 0 0 0 0 0 0 0 0
0 0 0 0 0 0 0 0 0 0 0 0 0 0 0 0 0 0 0 0 0 0 0 0 0 0 0 0 0 0 0 0 0 0 0 0 0 0 0 0 0 0 0 0 0 0 0 0 0
0 0 0 0 0 0 0 0 0 0 0 0 0 0 0 0 0 0 0 0 0 0 0 0 0 0 0 0 0 0 0 0 0 0 0 0 0 0 0 0 0 0 0 0 0 0 0 0 0
0 0 0 0 0 0 0 0 0 0 0 0 0 0 0 0 0 0 0 0 0 0 0 0 0 0 0 0 0 0 0 0 0 0 0 0 0 0 0 0 0 0 0 0 0 0 0 0 0
0 0 0 0 0 0 0 0 0 0 0 0 0 1 0 0 0 0 0 0 0 0 0 0 0 0 0 0 0 0 0 0 0 0 0 0 0 0 0 0 0 0 0 0 0 0 0 0 0
0 0 0 0 0 0 0 0 0 0 0 0 1 1 1 0 0 0 0 0 0 0 0 0 0 0 0 0 0 0 0 0 0 0 0 0 0 0 0 0 0 0 0 0 0 0 0 0 0
0 0 0 0 0 0 0 0 0 0 0 0 1 1 1 0 0 0 1 1 1 0 0 0 0 0 0 0 0 0 0 0 0 0 0 0 0 0 0 0 0 0 0 0 0 0 0 0 0
0 0 0 0 0 0 0 0 0 0 0 0 1 1 1 0 0 1 1 1 1 1 1 1 1 0 0 0 0 0 0 0 0 0 0 0 0 0 0 0 0 0 0 0 0 0 0 0 0
0 0 0 0 0 0 0 0 0 0 0 0 0 1 1 1 1 1 1 1 1 1 1 1 1 1 0 0 0 0 0 0 0 0 0 0 0 0 0 0 0 0 0 0 0 0 0 0 0
0 0 0 0 0 0 0 0 0 0 0 0 0 1 1 1 1 1 1 1 1 1 1 1 1 1 1 0 0 0 0 0 0 0 1 1 0 0 0 0 0 0 0 0 0 0 0 0 0
0 0 0 0 0 0 0 0 0 0 0 0 0 1 1 1 1 1 1 1 1 1 1 1 1 1 1 1 1 0 0 0 1 1 1 1 1 0 0 0 0 0 0 0 0 0 0 0 0
0 0 0 0 0 0 0 0 0 0 0 0 0 1 1 1 1 1 1 1 1 1 1 1 1 1 1 1 1 1 1 1 1 1 1 1 1 1 0 0 0 0 0 0 0 0 0 0 0
0 0 0 0 0 0 0 0 0 0 0 0 0 1 1 1 1 1 1 1 1 2 2 1 1 1 1 1 1 1 1 1 1 1 1 1 1 1 1 0 0 0 0 0 0 0 0 0 0
0 0 0 0 0 0 0 0 0 0 0 0 0 1 1 1 2 2 2 2 2 2 2 2 1 1 1 1 1 1 1 1 1 1 1 1 1 1 1 1 0 0 0 1 0 0 0 0 0
0 0 0 0 0 0 0 0 0 0 0 0 0 1 1 1 2 2 2 2 2 2 2 2 2 2 1 1 1 1 1 1 1 1 1 1 1 1 1 1 1 0 1 1 1 1 0 0 0
0 0 0 0 0 0 0 0 0 0 0 0 0 0 1 1 2 2 2 2 2 2 2 2 2 2 2 2 1 1 1 1 1 1 1 1 1 1 1 1 1 1 1 1 1 1 1 1 0
0 0 0 0 0 0 0 0 0 0 0 0 0 0 1 1 1 2 2 2 2 2 2 2 2 2 2 2 2 1 1 1 1 1 1 1 1 1 1 1 1 1 1 1 1 1 1 1 1
0 0 0 0 0 0 0 0 0 0 0 0 0 0 1 1 1 2 2 2 2 2 2 2 2 2 2 2 2 2 1 1 1 1 1 1 1 1 1 1 1 1 1 1 1 1 1 1 1
0 0 0 0 0 0 0 0 0 0 0 0 0 0 1 1 1 2 2 2 2 2 2 2 2 2 2 2 2 2 2 1 1 1 1 1 1 1 1 1 1 1 1 1 1 1 1 1 1
0 0 0 0 0 0 0 0 0 0 0 0 0 0 1 1 1 2 2 2 2 2 2 2 2 2 2 2 2 2 2 1 1 1 1 1 1 1 1 1 1 1 1 1 1 0 0 0 0
0 0 0 0 0 0 0 0 0 0 0 0 0 0 1 1 1 1 2 2 2 2 2 2 2 2 2 2 2 2 2 1 1 1 1 1 1 1 1 1 1 1 1 1 0 0 0 0 0
0 0 0 0 0 0 0 0 0 0 0 0 0 1 1 1 1 1 2 2 2 2 2 2 2 2 2 2 2 2 1 1 1 1 1 1 1 1 1 1 1 1 1 1 0 0 0 0 0
0 0 0 0 0 0 0 0 0 0 0 0 0 1 1 1 1 1 1 2 2 2 2 2 2 2 2 2 2 1 1 1 1 1 1 1 1 1 1 1 1 1 0 0 0 0 0 0 0
0 0 0 0 0 0 0 0 0 0 0 0 1 1 1 1 1 1 1 1 1 1 2 2 2 2 2 2 1 1 1 1 1 1 1 1 1 1 1 1 1 1 0 0 0 0 0 0 0
Wind_Speed
9 11 9 6 3 3 13 15 15 14 15 14 15 15 18 16 14 15 15 20 21 18 16 14 13 14 14 13 13 13 13 13 13 13 13 13 13 13 13 13 14 14 15 14 14 14 14 14 13
10 12 8 4 1 7 13 13 14 14 14 14 16 19 20 19 18 17 17 19 20 18 15 14 14 14 13 13 13 13 12 12 12 12 12 12 12 12 13 13 13 13 14 14 14 14 14 13 11
12 14 5 1 7 10 13 12 13 13 12 14 17 17 15 15 17 15 17 19 19 18 16 15 15 14 13 13 12 12 12 12 12 12 12 12 12 12 12 12 12 13 13 13 13 13 13 12 10
9 6 3 3 12 13 13 12 12 12 12 13 15 14 14 14 16 17 18 20 20 18 17 15 15 14 13 12 12 12 11 11 11 12 11 11 11 11 12 12 12 12 12 12 12 12 12 10 9
9 4 1 8 13 13 12 12 13 12 14 17 18 17 15 16 19 18 17 18 18 19 17 15 14 14 13 12 11 11 11 11 11 11 11 11 11 11 11 11 11 11 12 12 12 11 10 9 7
6 3 3 8 13 12 11 12 13 14 14 17 19 17 14 15 16 15 15 16 18 19 17 15 14 14 13 12 11 11 10 10 10 10 10 10 10 10 10 10 10 11 11 11 10 10 9 7 5
7 3 5 10 12 12 12 11 12 12 12 13 17 16 14 15 14 14 13 13 17 19 17 14 13 12 12 12 11 10 10 9 9 9 9 9 9 10 10 10 10 10 10 10 9 9 8 6 3
5 3 4 9 11 12 11 12 12 13 11 10 12 12 15 16 14 13 12 12 15 16 16 14 14 13 11 11 11 11 10 9 9 9 9 9 9 9 10 10 9 9 9 9 8 8 7 5 2
5 3 5 9 10 11 11 13 12 12 11 11 13 18 20 18 15 13 11 10 10 12 12 13 14 12 12 12 12 11 10 9 9 8 9 8 6 8 7 10 9 8 8 8 7 7 6 5 4
1 1 7 7 8 10 10 10 10 11 12 14 16 19 20 17 15 13 12 11 10 10 10 9 10 10 10 9 10 8 8 8 6 5 7 5 3 4 8 10 9 8 7 7 7 7 7 6 4
1 3 6 7 8 6 8 9 8 11 13 16 17 19 19 17 14 12 11 11 10 8 8 10 10 7 7 6 7 5 4 5 5 5 5 3 3 4 6 5 6 5 6 5 6 6 5 5 3
0 1 3 6 6 4 6 8 10 10 14 19 19 19 18 17 14 13 12 11 10 7 7 9 10 6 3 4 4 5 4 4 4 4 4 4 2 2 3 3 4 4 3 3 3 3 3 2 2
2 2 3 4 4 4 4 7 10 12 17 19 19 18 17 16 14 12 12 11 10 7 6 7 7 6 4 2 0 2 3 4 4 4 3 3 3 3 2 1 1 2 2 3 2 2 2 1 1
3 2 3 3 4 4 4 6 9 13 17 19 18 17 16 15 14 12 12 10 10 8 7 7 8 6 4 3 1 0 2 2 3 3 4 3 2 2 3 2 1 1 2 2 2 2 2 2 2
5 5 6 6 6 5 3 2 7 13 15 16 16 16 15 14 13 12 12 11 11 9 7 7 7 7 5 5 4 4 3 4 3 3 4 3 3 3 2 2 2 2 1 1 1 2 1 2 3
9 10 8 7 7 6 5 4 6 12 14 14 14 13 14 12 13 12 12 10 10 9 8 7 7 9 6 4 4 3 3 3 3 3 4 4 3 3 2 2 2 2 2 2 2 2 2 2 2
12 11 8 7 7 6 6 6 8 10 11 13 13 14 14 13 13 12 13 11 10 9 8 7 5 7 7 6 4 4 2 1 2 3 3 4 4 4 3 2 2 3 2 2 3 3 2 2 2
9 8 7 6 7 6 4 5 8 9 10 12 12 14 14 14 13 13 12 12 10 9 8 8 6 6 6 5 4 3 3 2 2 3 3 5 4 5 4 3 3 3 2 2 2 1 2 2 2
11 8 4 4 3 4 5 6 7 9 10 11 11 12 14 14 14 13 13 13 12 10 9 8 7 6 5 4 4 4 4 3 3 4 5 6 6 6 5 4 3 4 3 3 3 2 3 3 3
11 11 5 4 4 5 6 6 6 7 8 9 10 11 14 14 14 13 12 12 12 11 10 9 8 8 7 4 3 3 3 3 4 4 4 5 6 6 6 5 4 5 3 4 4 3 2 3 3
12 11 7 5 4 7 8 8 8 7 6 7 10 11 13 15 16 15 14 13 13 12 11 9 9 8 7 6 4 3 2 2 2 2 3 4 5 5 5 6 5 4 5 4 5 5 5 3 3
12 10 7 6 6 7 9 8 7 8 8 8 9 10 12 14 15 16 15 13 12 12 11 9 9 8 7 6 5 5 4 4 3 2 2 3 4 5 6 6 6 5 4 4 6 6 5 4 3
10 7 8 9 9 11 10 9 5 8 8 8 8 8 9 10 12 14 14 12 12 12 11 9 9 7 7 6 6 5 4 3 2 2 2 3 3 4 5 5 4 4 4 5 5 4 4 4 4
9 8 9 10 10 12 11 10 4 5 5 5 6 6 7 8 8 11 12 11 10 10 10 10 9 7 7 6 6 5 4 3 2 2 2 3 2 3 5 5 4 5 4 4 4 4 5 5 5
12 9 7 8 9 10 10 9 3 5 6 5 5 7 8 9 9 10 11 11 9 9 9 9 9 7 6 6 5 4 4 3 3 2 2 2 2 3 4 5 4 4 4 4 4 4 5 5 5
14 14 10 8 8 7 8 8 5 7 7 6 4 6 10 10 10 10 10 10 9 9 8 8 8 7 6 6 5 4 4 3 2 2 2 2 2 3 3 4 4 4 5 5 4 4 5 4 4
15 15 16 14 14 9 5 6 5 8 7 7 6 7 8 9 10 11 11 10 9 9 8 8 7 6 6 5 4 4 3 2 2 1 2 2 2 2 2 2 3 4 4 4 3 3 4 3 4
16 14 10 11 10 9 6 7 6 11 9 8 7 7 8 8 9 9 10 9 9 8 8 7 7 6 5 4 4 4 3 2 1 1 1 0 1 2 2 1 2 3 3 3 3 3 3 3 2
16 16 12 9 10 10 7 3 2 8 8 8 8 7 7 7 7 8 8 8 8 7 8 7 6 5 4 3 3 2 2 2 1 1 0 1 1 1 2 2 1 1 1 1 1 2 2 2 1
16 16 14 10 8 9 8 2 3 6 7 6 8 8 8 9 8 9 9 9 8 7 8 7 6 5 5 4 3 2 2 2 1 1 1 1 2 2 2 2 2 2 2 2 1 0 1 0 0
Wind_Direction
251 246 238 251 249 73 74 70 70 71 68 59 56 70 64 59 78 95 110 111 112 114 118 115 110 107 106 104 101 98 96 94 93 92 91 90 90 91 91 91 91 92 92 92 93 93 94 94 96
270 256 243 247 98 81 77 73 74 74 78 76 69 72 74 75 88 102 110 114 117 121 121 114 113 110 108 106 104 100 99 96 93 92 92 91 92 92 94 93 93 93 94 93 93 94 95 96 99
263 258 259 209 75 78 83 82 84 83 84 86 78 66 71 92 100 108 119 120 115 111 110 115 116 113 111 109 107 104 102 100 97 94 92 92 93 94 94 94 95 96 96 96 96 97 96 97 97
263 245 221 92 78 80 87 92 94 93 88 86 88 81 76 92 106 118 124 118 116 120 118 118 119 117 114 112 110 108 107 104 100 98 96 95 95 94 94 95 98 99 98 98 98 98 99 99 100
248 254 118 84 85 85 84 86 90 85 83 84 88 94 91 98 112 124 125 125 127 120 120 124 123 121 119 116 113 111 109 107 105 104 101 100 99 97 95 97 99 101 101 101 101 102 101 101 100
266 262 98 91 91 91 91 91 95 93 96 103 104 103 101 114 124 132 130 132 125 123 122 125 128 127 125 123 121 118 115 113 111 110 107 105 104 104 101 101 102 103 104 103 105 105 104 104 100
273 295 105 100 97 91 87 90 92 96 94 99 110 111 122 130 134 134 132 127 124 123 128 138 138 135 133 132 129 127 125 122 121 120 119 119 117 115 110 106 106 106 108 110 112 113 112 110 113
293 323 95 101 98 94 92 90 90 94 88 106 122 121 136 136 142 133 129 126 126 131 138 144 145 145 148 142 140 138 136 136 135 134 135 137 134 131 127 121 113 114 116 119 123 125 127 130 157
281 301 70 85 95 105 103 101 100 101 95 72 80 117 134 141 143 138 137 132 128 130 138 148 145 153 156 150 148 150 149 150 153 155 159 165 167 151 148 121 127 127 129 132 138 144 149 163 206
276 44 80 80 88 101 109 113 120 115 104 90 93 116 132 143 146 149 147 143 136 136 142 143 141 148 156 148 149 162 162 163 182 168 175 190 177 139 129 134 142 146 148 154 164 172 179 198 207
24 64 89 97 89 100 115 116 116 117 119 122 128 137 144 148 153 156 153 147 141 153 149 141 131 146 150 137 158 160 156 159 180 173 168 165 154 144 137 153 155 163 173 187 175 193 214 210 209
68 50 71 87 97 100 96 97 92 96 114 128 140 148 151 157 162 161 156 150 148 166 156 140 134 140 122 128 142 151 156 165 160 161 175 158 157 153 146 158 165 174 184 191 193 208 209 199 198
233 189 123 122 119 102 100 105 107 107 116 127 141 152 158 162 162 162 155 151 149 162 160 129 125 122 121 102 135 153 150 156 149 156 166 159 165 160 147 139 158 185 179 174 205 218 188 176 208
264 241 183 158 151 158 143 129 125 122 126 134 145 155 164 165 165 160 155 153 156 167 163 138 137 135 140 147 174 236 158 138 152 161 160 173 163 141 149 166 193 208 202 186 187 199 182 193 227
263 240 221 200 189 164 126 139 142 137 138 144 152 161 165 167 164 162 160 161 163 168 159 148 155 152 166 175 193 198 193 176 162 151 151 171 170 154 172 175 199 211 192 185 202 221 215 212 213
237 234 223 201 194 154 145 193 169 152 151 152 156 164 165 165 167 165 161 164 162 164 156 165 177 160 170 189 207 220 206 177 160 158 159 180 175 171 201 193 204 208 194 185 219 239 227 231 229
229 231 216 194 183 166 170 181 172 165 163 160 164 169 170 168 174 167 166 167 164 158 156 169 182 158 171 184 196 236 229 197 177 176 172 176 188 189 209 219 200 218 217 204 228 199 224 249 250
240 232 205 194 177 188 179 161 167 172 180 172 171 172 169 172 178 171 170 167 164 159 160 168 180 166 171 178 187 225 221 203 204 203 186 175 194 202 211 221 205 224 216 215 235 228 216 250 261
270 269 229 178 169 219 203 184 187 181 187 175 174 175 172 175 176 170 172 170 167 163 164 172 183 174 177 186 190 206 214 211 208 210 197 194 206 204 203 236 202 223 223 214 224 220 231 232 236
265 267 250 208 189 242 232 215 196 188 188 180 182 179 175 173 173 171 174 174 169 168 171 176 184 179 186 193 197 211 213 212 210 218 195 200 208 210 207 210 220 215 219 217 228 223 238 252 221
252 256 254 232 198 240 253 239 208 193 194 191 189 185 180 176 176 174 178 180 175 173 178 183 182 182 188 193 192 220 216 236 235 218 206 215 212 216 229 206 221 224 222 214 215 217 218 236 250
246 251 254 258 248 251 244 251 200 188 195 199 200 188 184 180 176 175 179 180 179 176 179 176 175 179 183 191 203 212 216 223 227 215 209 213 222 227 229 221 222 224 233 227 218 217 216 221 241
248 263 256 247 246 255 251 256 212 185 198 202 199 194 178 174 174 173 175 176 179 177 173 173 173 178 181 193 205 214 230 233 237 212 211 220 222 231 238 229 226 225 234 234 233 226 216 216 225
243 249 254 256 256 252 251 259 233 185 189 203 202 180 155 153 163 168 166 167 172 170 169 173 169 174 182 193 203 209 230 235 240 234 222 226 230 231 237 230 218 221 229 233 233 229 223 225 232
226 229 226 228 232 243 239 243 212 166 167 178 187 155 146 149 160 163 162 163 165 165 165 163 161 174 182 190 201 207 220 228 232 243 239 239 249 243 238 236 219 222 224 225 228 228 234 230 231
215 228 235 241 242 238 233 236 202 161 148 152 149 137 145 156 157 154 151 153 157 158 157 155 159 170 178 185 192 199 209 221 225 236 247 251 251 254 253 233 225 226 229 229 221 233 229 233 235
217 225 242 254 270 272 237 229 180 154 157 158 150 151 153 153 149 150 150 153 153 156 155 152 152 159 171 181 182 187 197 211 214 212 227 248 261 268 268 233 226 225 227 233 228 231 234 224 227
238 230 238 251 266 271 253 222 206 168 170 168 164 160 151 148 148 146 144 143 145 152 142 139 143 149 156 166 181 178 187 194 197 242 254 317 319 323 319 275 236 229 228 223 228 234 225 217 232
220 232 240 253 259 263 259 252 197 156 165 169 161 152 147 136 134 130 129 130 132 134 133 133 135 138 141 151 157 140 145 156 177 221 292 57 47 355 343 7 6 338 293 229 214 236 232 218 246
225 226 230 239 252 267 273 267 87 125 148 157 146 139 134 129 136 129 132 128 129 135 134 132 132 135 139 137 135 132 131 130 128 91 43 61 65 49 27 32 41 29 25 18 31 13 26 35 322